CW3577 Weather Reports


Display with metric or nautical units.
time (UTC)temp
F
wind
direction
speed
MPH
gust
MPH
rain 1hr
in
rain 24hr
in
rain mn
in
humidity
%
barometer
mb
20260505234524 73 221 8.0 20.0 0.00 0.00 0.00 45 1007.4
20260505233052 74 148 9.0 24.0 0.00 0.00 0.00 44 1007.0
20260505231517 75 198 7.0 22.0 0.00 0.00 0.00 43 1006.9
20260505230042 76 191 9.0 21.0 0.00 0.00 0.00 42 1006.5
20260505224510 77 180 7.0 18.0 0.00 0.00 0.00 40 1006.4
20260505223033 78 202 12.0 24.0 0.00 0.00 0.00 39 1006.0
20260505221559 79 169 9.0 22.0 0.00 0.00 0.00 38 1005.6
20260505220019 79 168 13.0 24.0 0.00 0.00 0.00 38 1005.3
20260505214611 80 173 8.0 21.0 0.00 0.00 0.00 35 1005.4
20260505213010 81 232 9.0 29.0 0.00 0.00 0.00 34 1005.2
20260505211538 82 207 9.0 21.0 0.00 0.00 0.00 32 1005.0
20260505210059 82 169 11.0 24.0 0.00 0.00 0.00 30 1005.0
20260505204524 82 166 7.0 23.0 0.00 0.00 0.00 30 1004.9
20260505203043 82 202 8.0 25.0 0.00 0.00 0.00 32 1004.9
20260505201513 83 186 10.0 25.0 0.00 0.00 0.00 31 1004.9
20260505200040 84 152 6.0 25.0 0.00 0.00 0.00 33 1005.0
20260505194557 83 227 9.0 26.0 0.00 0.00 0.00 32 1005.2
20260505193017 83 200 10.0 24.0 0.00 0.00 0.00 32 1005.1
20260505191544 82 197 8.0 26.0 0.00 0.00 0.00 35 1005.5
20260505190004 83 187 9.0 22.0 0.00 0.00 0.00 33 1005.6
20260505184522 83 226 9.0 22.0 0.00 0.00 0.00 34 1005.9
20260505183052 83 188 7.0 20.0 0.00 0.00 0.00 34 1006.1
20260505181557 82 180 11.0 23.0 0.00 0.00 0.00 35 1006.6
20260505180026 82 165 9.0 27.0 0.00 0.00 0.00 35 1006.6
20260505174555 82 171 11.0 25.0 0.00 0.00 0.00 37 1006.6
20260505173011 81 183 13.0 23.0 0.00 0.00 0.00 37 1007.0
20260505171531 81 115 8.0 14.0 0.00 0.00 0.00 37 1007.0
20260505170054 80 186 9.0 18.0 0.00 0.00 0.00 37 1007.5
20260505164511 79 249 7.0 19.0 0.00 0.00 0.00 38 1007.7
20260505163035 79 200 10.0 20.0 0.00 0.00 0.00 42 1007.9
20260505161555 80 181 3.0 17.0 0.00 0.00 0.00 38 1008.0
20260505153058 76 277 3.0 10.0 0.00 0.00 0.00 45 1009.2
20260505151509 75 242 5.0 11.0 0.00 0.00 0.00 46 1009.3
20260505140112 69 161 5.0 12.0 0.00 0.00 0.00 53 1009.7
20260505124545 65 199 2.0 10.0 0.00 0.00 0.00 58 1009.8
20260505123010 63 163 4.0 9.0 0.00 0.00 0.00 62 1009.8
20260505121535 61 226 2.0 9.0 0.00 0.00 0.00 64 1009.9
20260505120054 61 183 3.0 10.0 0.00 0.00 0.00 64 1009.9
20260505114504 60 226 4.0 8.0 0.00 0.00 0.00 66 1009.9
20260505113031 59 201 5.0 8.0 0.00 0.00 0.00 67 1009.7
20260505111546 58 190 4.0 10.0 0.00 0.00 0.00 69 1009.9
20260505101514 54 204 4.0 9.0 0.00 0.00 0.00 73 1009.7
20260505100038 54 163 4.0 11.0 0.00 0.00 0.00 73 1009.7
20260505094550 53 200 3.0 7.0 0.00 0.00 0.00 74 1009.7
20260505093018 52 180 2.0 7.0 0.00 0.00 0.00 76 1009.7
20260505091542 49 178 2.0 4.0 0.00 0.00 0.00 80 1009.7
20260505090100 49 163 1.0 3.0 0.00 0.00 0.00 81 1009.7
20260505084526 48 164 1.0 3.0 0.00 0.00 0.00 82 1009.8
20260505083046 48 165 1.0 2.0 0.00 0.00 0.00 82 1009.9
20260505081508 48 165 0.0 2.0 0.00 0.00 0.00 81 1010.0
20260505080032 48 165 0.0 3.0 0.00 0.00 0.00 79 1009.9
20260505074552 49 165 1.0 2.0 0.00 0.00 0.00 79 1010.1
20260505073014 49 165 1.0 3.0 0.00 0.00 0.00 78 1010.1
20260505071547 49 158 0.0 6.0 0.00 0.00 0.00 79 1010.1
20260505064522 50 165 0.0 3.0 0.00 0.00 0.00 76 1010.2
20260505063040 50 165 0.0 2.0 0.00 0.00 0.00 75 1010.3
20260505061511 51 165 0.0 2.0 0.00 0.00 0.00 73 1010.3
20260505060040 52 165 0.0 2.0 0.00 0.00 0.00 71 1010.4
20260505054548 53 165 1.0 3.0 0.00 0.00 0.00 68 1010.5
20260505053012 54 166 1.0 3.0 0.00 0.00 0.00 65 1010.5
20260505051535 55 167 1.0 3.0 0.00 0.00 0.00 63 1010.4
20260505050104 55 167 2.0 5.0 0.00 0.00 0.00 61 1010.6
20260505041506 57 190 4.0 8.0 0.00 0.00 0.00 57 1010.5
20260505040026 57 188 3.0 6.0 0.00 0.00 0.00 56 1010.4
20260505034549 58 178 1.0 7.0 0.00 0.00 0.00 55 1010.2
20260505033004 58 157 2.0 6.0 0.00 0.00 0.00 53 1010.2
20260505031522 59 184 6.0 9.0 0.00 0.00 0.00 52 1010.2
20260505030048 60 200 3.0 12.0 0.00 0.00 0.00 51 1010.2
20260505024511 60 162 5.0 9.0 0.00 0.00 0.00 50 1010.1
20260505023037 60 181 6.0 10.0 0.00 0.00 0.00 50 1010.1
20260505021558 60 174 6.0 10.0 0.00 0.00 0.00 49 1010.3
20260505020024 61 190 2.0 7.0 0.00 0.00 0.00 48 1010.2
20260505014544 62 171 5.0 9.0 0.00 0.00 0.00 47 1009.9
20260505013009 62 189 4.0 17.0 0.00 0.00 0.00 46 1009.9
20260505011536 63 201 4.0 10.0 0.00 0.00 0.00 46 1009.6
20260505010110 63 290 3.0 16.0 0.00 0.00 0.00 44 1009.3
20260505004524 64 200 6.0 15.0 0.00 0.00 0.00 43 1009.0
20260505003045 65 209 4.0 11.0 0.00 0.00 0.00 42 1008.5
20260505001514 66 184 6.0 14.0 0.00 0.00 0.00 40 1008.1
20260505000050 66 186 4.0 10.0 0.00 0.00 0.00 37 1007.9